TimeEDT,TemperatureF,Dew PointF,Humidity,Sea Level PressureIn,VisibilityMPH,Wind Direction,Wind SpeedMPH,Gust SpeedMPH,PrecipitationIn,Events,Conditions,WindDirDegrees,DateUTC
12:53 AM,64.0,48.9,58,30.27,10.0,North,8.1,-,N/A,,Clear,350,2013-04-26 04:53:00
1:53 AM,61.0,48.0,62,30.27,10.0,North,3.5,-,N/A,,Clear,350,2013-04-26 05:53:00
2:53 AM,59.0,46.4,63,30.22,10.0,North,4.6,-,N/A,,Clear,360,2013-04-26 06:53:00
3:53 AM,57.9,45.0,62,30.25,10.0,North,5.8,-,N/A,,Clear,360,2013-04-26 07:53:00
4:53 AM,57.9,43.0,58,30.25,10.0,North,3.5,-,N/A,,Clear,10,2013-04-26 08:53:00
5:53 AM,55.9,43.0,62,30.26,10.0,NNE,5.8,-,N/A,,Clear,20,2013-04-26 09:53:00
6:53 AM,55.9,41.0,57,30.27,10.0,NNE,6.9,-,N/A,,Clear,20,2013-04-26 10:53:00
7:53 AM,57.0,41.0,55,30.29,10.0,NNE,6.9,-,N/A,,Clear,20,2013-04-26 11:53:00
8:53 AM,62.1,39.9,44,30.31,10.0,NNE,9.2,-,N/A,,Clear,30,2013-04-26 12:53:00
9:53 AM,-9999,-9999,N/A,30.28,-9999.0,North,-9999.0,-,N/A,,Unknown,0,2013-04-26 13:53:00
10:53 AM,72.0,39.0,30,30.33,10.0,NE,8.1,-,N/A,,Clear,50,2013-04-26 14:53:00
11:53 AM,158.0,39.9,4,30.33,-9999.0,North,-9999.0,-,N/A,,Unknown,0,2013-04-26 15:53:00
12:53 PM,79.0,44.1,29,30.32,10.0,North,5.8,-,N/A,,Clear,10,2013-04-26 16:53:00
1:53 PM,81.0,48.0,31,30.31,10.0,Calm,Calm,-,N/A,,Clear,0,2013-04-26 17:53:00
2:53 PM,82.9,48.9,31,30.29,10.0,NNE,5.8,-,N/A,,Clear,30,2013-04-26 18:53:00
3:53 PM,84.0,46.9,27,30.26,10.0,Variable,3.5,-,N/A,,Clear,0,2013-04-26 19:53:00
4:53 PM,86.0,45.0,24,30.24,10.0,Calm,Calm,-,N/A,,Clear,0,2013-04-26 20:53:00
5:53 PM,82.9,50.0,32,30.24,10.0,South,4.6,-,N/A,,Clear,190,2013-04-26 21:53:00
6:53 PM,80.1,54.0,40,30.25,10.0,Variable,6.9,-,N/A,,Clear,0,2013-04-26 22:53:00
7:53 PM,73.9,57.0,55,30.26,10.0,South,5.8,-,N/A,,Clear,180,2013-04-26 23:53:00
8:53 PM,69.1,57.0,65,30.26,10.0,South,3.5,-,N/A,,Clear,180,2013-04-27 00:53:00
9:53 PM,66.9,59.0,76,30.27,10.0,Calm,Calm,-,N/A,,Clear,0,2013-04-27 01:53:00
10:53 PM,64.9,59.0,81,30.27,10.0,Calm,Calm,-,N/A,,Clear,0,2013-04-27 02:53:00
11:53 PM,62.1,59.0,90,30.27,10.0,WNW,3.5,-,N/A,,Clear,300,2013-04-27 03:53:00